Weather History for Las Vegas, NM

Change the Weather History Date:

Saturday, May 4, 2013

  Actual Average Record
Temperature  
Mean Temperature 44 °F -  
Max Temperature 62 °F 69 °F 84 °F (2000)
Min Temperature 28 °F 37 °F 24 °F (1953)
Degree Days  
Heating Degree Days 20    
Moisture  
Dew Point 8 °F    
Average Humidity 22    
Maximum Humidity 37    
Minimum Humidity 12    
Precipitation  
Precipitation 0.00 in - - ()
Sea Level Pressure  
Sea Level Pressure 29.97 in    
Wind  
Wind Speed 9 mph (East)    
Max Wind Speed 17 mph    
Max Gust Speed 23 mph    
Visibility 10 miles    
Events      
Averages and records for this station are not official NWS values.
T = Trace of Precipitation, MM = Missing Value Source: NWS Daily Summary

Daily Weather History Graph

Daily Weather History Graph

Search for Another Location

Airport:

Trip Planner

Search our weather history database for the weather conditions in past years. The results will help you decide how hot, cold, wet, or windy it might be!

Date:

Astronomy

May. 04, 2013 Rise Set
Actual Time 6:05 AM MDT 7:49 PM MDT
Civil Twilight 5:37 AM MDT 8:17 PM MDT
Nautical Twilight 5:04 AM MDT 8:50 PM MDT
Astronomical Twilight 4:29 AM MDT 9:26 PM MDT
Moon 2:54 AM MDT (5/4) 3:00 PM MDT (5/4)
Length of Visible Light 14h 39m
Length of Day
13h 44m
Waning Crescent, 26% of the Moon is Illuminated
May 4
Waning Crescent
May 9
New
May 17
First Quarter
May 24
Full
May 31
Last Quarter

Hourly Weather History & Observations

Time (MDT) Temp. Windchill Dew Point Humidity Pressure Visibility Wind Dir Wind Speed Gust Speed Precip Events Conditions
12:53 AM 36.0 °F 29.0 °F 7.0 °F 30% 29.98 in 10.0 mi ESE 9.2 mph - N/A   Clear
1:53 AM 37.0 °F 33.3 °F 6.1 °F 28% 29.96 in 10.0 mi NE 4.6 mph - N/A   Clear
2:53 AM 33.1 °F 26.9 °F 7.0 °F 34% 29.95 in 10.0 mi North 6.9 mph - N/A   Clear
3:53 AM 28.9 °F 21.1 °F 5.0 °F 36% 29.95 in 10.0 mi NNE 8.1 mph - N/A   Clear
4:53 AM 28.9 °F 19.8 °F 5.0 °F 36% 29.96 in 10.0 mi NE 10.4 mph - N/A   Clear
5:53 AM 28.9 °F 21.1 °F 5.0 °F 36% 29.95 in 10.0 mi NE 8.1 mph - N/A   Clear
6:53 AM 30.9 °F 24.3 °F 7.0 °F 37% 29.97 in 10.0 mi NNE 6.9 mph - N/A   Clear
7:53 AM 37.0 °F 31.6 °F 8.1 °F 30% 29.99 in 10.0 mi NNE 6.9 mph - N/A   Clear
8:53 AM 46.0 °F 43.9 °F 10.0 °F 23% 29.97 in 10.0 mi NNE 4.6 mph - N/A   Clear
9:53 AM 50.0 °F - 10.0 °F 20% 29.97 in 10.0 mi ENE 5.8 mph - N/A   Clear
10:53 AM 53.1 °F - 10.0 °F 18% 29.96 in 10.0 mi Variable 5.8 mph - N/A   Clear
11:53 AM 55.9 °F - 9.0 °F 15% 29.96 in 10.0 mi SE 8.1 mph - N/A   Clear
12:53 PM 59.0 °F - 10.0 °F 14% 29.94 in 10.0 mi ESE 10.4 mph 20.7 mph N/A   Clear
1:53 PM 60.1 °F - 9.0 °F 13% 29.93 in 10.0 mi South 13.8 mph 19.6 mph N/A   Clear
2:53 PM 60.1 °F - 9.0 °F 13% 29.94 in 10.0 mi SSE 12.7 mph 19.6 mph N/A   Clear
3:53 PM 61.0 °F - 9.0 °F 13% 29.94 in 10.0 mi South 17.3 mph 21.9 mph N/A   Clear
4:53 PM 61.0 °F - 8.1 °F 12% 29.93 in 10.0 mi SSE 12.7 mph 23.0 mph N/A   Clear
5:53 PM 61.0 °F - 7.0 °F 12% 29.94 in 10.0 mi SSE 12.7 mph 20.7 mph N/A   Clear
6:53 PM 59.0 °F - 8.1 °F 13% 29.95 in 10.0 mi SE 17.3 mph - N/A   Clear
7:53 PM 53.1 °F - 7.0 °F 16% 29.97 in 10.0 mi ESE 15.0 mph - N/A   Clear
8:53 PM 48.9 °F - 9.0 °F 20% 29.99 in 10.0 mi ESE 15.0 mph - N/A   Clear
9:53 PM 46.9 °F - 9.0 °F 21% 30.01 in 10.0 mi ESE 15.0 mph - N/A   Clear
10:53 PM 46.0 °F 39.9 °F 10.0 °F 23% 30.02 in 10.0 mi ESE 13.8 mph - N/A   Clear
11:53 PM 41.0 °F - 9.0 °F 27% 30.06 in 10.0 mi Calm Calm - N/A   Clear